Wind_Speed
10 7 13 13 7 2 6 7 9 3 3 4 7 7 6 14 15 17 22 26 26 28 26 23 25 22 20 21 25 26 26 25 23 21 19 17 14 11 9 8 6 5 5 7
7 13 10 9 7 5 7 7 5 2 3 3 1 1 2 8 14 20 25 25 25 25 24 24 24 24 24 24 27 27 27 26 24 20 18 17 14 12 9 9 6 5 5 4
10 6 11 10 9 9 5 8 5 3 1 3 1 4 2 2 7 14 21 22 24 26 27 24 24 26 29 27 30 30 27 26 24 20 18 16 15 14 12 11 8 6 5 4
7 6 13 11 10 10 10 7 5 3 2 4 3 5 2 1 8 12 20 24 25 27 26 27 27 26 30 32 31 31 30 28 26 22 19 18 18 17 15 11 9 7 6 5
5 12 15 12 12 9 4 7 7 4 3 3 3 4 3 2 4 10 15 21 28 28 29 29 31 31 30 32 35 34 32 30 28 26 22 20 20 18 14 13 11 9 7 6
3 3 6 11 7 12 11 8 6 4 2 6 4 4 6 7 13 14 11 21 23 27 29 28 28 27 30 32 36 38 36 34 32 29 27 24 20 20 18 16 14 14 11 8
3 2 2 3 8 6 7 9 5 6 5 6 2 4 6 9 14 16 10 12 23 25 28 27 28 29 32 33 35 38 39 38 35 33 31 28 23 22 22 19 17 16 15 11
5 7 5 7 2 5 14 12 5 8 9 8 2 8 5 8 16 21 19 7 7 20 23 26 28 30 31 35 40 39 39 39 38 35 33 32 27 25 26 24 21 17 15 11
4 4 3 8 7 2 6 8 2 5 1 8 6 5 6 13 17 23 22 19 15 4 14 24 26 29 32 37 40 42 42 39 39 37 34 34 32 27 27 28 25 22 19 15
2 6 6 5 1 11 2 5 6 2 8 10 5 5 3 12 15 16 21 22 19 15 10 11 23 30 30 33 37 39 40 39 39 36 37 35 33 29 25 26 29 27 22 20
2 1 3 2 8 7 1 3 4 2 2 6 8 4 4 6 9 12 17 20 23 21 18 14 16 22 27 31 33 39 38 38 38 41 39 39 36 33 28 26 26 29 26 24
4 4 5 5 2 4 6 3 1 7 6 2 0 5 7 7 11 13 16 19 20 22 21 21 17 10 18 25 28 33 37 38 38 38 37 40 40 38 34 29 27 27 30 27
3 3 5 2 2 1 4 4 3 2 1 4 7 6 7 11 14 15 16 20 22 23 26 23 22 13 6 15 22 27 31 36 36 38 40 38 40 42 39 35 30 29 28 30
3 4 3 1 4 3 3 1 4 3 3 7 2 11 7 11 12 15 17 19 21 25 29 32 23 17 12 9 17 22 26 32 35 35 36 39 38 40 41 38 35 31 30 30
3 4 5 7 5 2 2 2 3 3 3 2 8 5 7 9 10 13 12 15 20 25 28 29 29 24 15 10 5 17 20 26 31 33 38 38 37 38 39 41 40 36 33 32
4 4 5 3 3 3 2 3 4 5 2 3 3 1 6 4 7 12 15 15 18 21 24 26 25 28 26 16 7 6 15 23 26 28 32 33 32 33 33 34 38 40 39 36
3 4 2 4 3 1 3 0 3 1 2 2 4 4 9 6 10 13 11 13 15 18 21 23 24 24 25 25 16 8 8 17 23 25 25 25 27 28 30 32 34 36 38 38
4 4 1 4 4 5 5 4 3 3 6 6 5 6 8 13 16 11 4 13 17 19 20 21 22 23 22 24 19 19 6 11 18 23 25 26 27 27 26 28 30 33 34 35
2 4 3 4 5 2 2 1 2 1 2 5 3 6 9 15 16 6 2 14 17 18 20 21 21 20 19 21 21 18 15 10 12 16 19 23 23 24 27 30 30 30 32 33
5 4 1 3 3 6 5 6 3 5 4 2 4 7 11 13 6 1 12 23 24 21 19 20 23 22 19 19 19 18 14 11 7 2 6 12 21 23 26 26 26 29 30 33
3 2 3 4 3 2 5 5 5 4 4 2 4 7 9 8 11 23 28 27 23 24 26 23 21 23 23 20 19 18 14 11 11 8 6 8 7 13 21 25 26 27 26 28
5 5 3 2 3 5 10 6 5 4 3 3 5 8 11 14 19 22 26 28 29 27 26 26 25 23 23 23 22 20 18 16 13 13 10 9 11 10 9 12 22 25 25 27
4 3 3 6 2 3 9 3 5 2 3 6 6 8 11 15 19 23 25 27 28 28 27 23 24 27 24 24 24 24 21 20 17 15 12 13 16 15 12 11 12 15 26 25
5 5 2 2 7 10 9 5 4 3 1 4 7 9 12 15 22 27 24 25 29 28 27 24 25 25 28 26 25 25 25 23 22 19 17 11 14 14 16 15 17 15 19 25
2 11 6 4 6 3 8 11 7 10 9 8 8 9 12 13 22 23 23 24 28 28 26 27 26 25 26 27 27 25 25 26 26 24 20 19 15 14 17 21 21 23 19 19
11 7 6 4 9 9 7 16 13 15 12 9 8 11 10 15 20 20 23 25 26 26 27 33 30 28 26 24 25 25 25 26 27 28 26 23 21 21 21 21 27 24 25 24
Wind_Direction
164 188 196 185 186 120 138 143 131 115 157 233 233 272 228 179 177 182 186 187 188 196 202 203 204 207 206 204 198 193 187 183 183 186 190 194 195 193 199 203 205 196 186 163
159 210 185 184 196 188 154 151 153 129 122 240 359 23 5 200 197 187 186 190 192 193 197 206 208 210 211 203 198 195 193 191 193 200 202 205 201 191 185 186 183 170 178 172
188 196 173 186 185 188 184 181 175 145 139 119 349 161 255 180 206 196 195 197 199 196 196 203 206 209 211 211 207 202 199 198 198 206 206 209 205 197 190 189 179 163 159 157
204 188 175 182 183 192 200 191 167 157 195 181 330 200 124 217 206 199 200 201 203 202 204 205 208 213 216 217 216 214 212 210 209 208 213 212 216 211 204 193 183 182 185 173
155 175 182 188 194 189 195 165 184 174 168 233 139 235 87 24 252 223 210 209 208 208 206 208 210 217 225 222 222 221 221 219 218 217 219 220 221 229 220 208 196 196 192 194
113 103 191 207 181 187 144 107 81 89 167 199 149 250 51 12 338 313 256 215 208 209 210 214 215 217 227 227 227 224 226 227 224 225 225 228 226 226 227 221 213 206 204 209
123 62 48 28 162 156 176 171 150 176 193 188 181 204 53 12 6 350 291 240 219 212 208 211 213 214 221 224 226 226 227 230 230 230 231 231 233 230 231 230 225 214 208 211
162 157 17 358 25 189 190 200 205 185 187 164 148 166 73 26 22 28 37 16 251 227 217 216 215 215 222 226 230 230 229 229 232 232 232 234 236 238 234 236 233 226 222 216
137 116 338 42 28 320 148 200 53 112 86 178 150 108 193 22 25 25 26 30 28 326 239 233 227 224 225 231 231 232 234 232 233 234 232 234 233 237 239 237 236 236 230 218
116 130 21 9 320 49 4 115 172 205 164 179 134 124 69 8 9 12 17 16 12 4 339 266 239 233 230 232 237 235 233 236 237 237 235 236 234 235 240 241 238 236 231 226
19 325 60 31 29 3 39 123 64 112 320 182 168 123 39 34 30 18 20 19 18 13 4 342 270 239 233 232 227 239 236 233 234 238 238 236 238 235 237 241 239 235 237 231
22 74 66 96 12 340 48 80 346 215 182 72 359 118 54 49 41 36 27 22 18 19 13 11 4 241 232 229 226 225 237 235 236 237 242 241 240 242 237 240 239 238 236 235
7 50 123 144 225 130 46 38 71 89 58 173 197 134 77 59 47 32 27 24 26 25 27 24 26 26 259 244 236 227 231 239 242 239 239 243 244 242 242 239 242 239 237 234
75 80 359 153 73 87 141 46 34 5 210 150 84 138 67 44 41 27 18 24 30 29 27 32 35 26 15 273 247 236 236 246 244 242 242 243 244 247 244 243 241 244 240 238
38 96 94 72 80 91 164 238 337 353 66 311 133 120 59 39 34 30 25 28 30 25 24 22 25 32 15 4 315 246 238 243 251 249 249 248 251 251 248 244 243 242 245 243
8 112 129 83 61 17 264 253 293 291 294 243 232 222 26 37 32 28 26 31 26 20 18 15 17 19 30 19 345 301 241 247 251 251 251 250 249 250 251 250 246 245 245 246
48 129 130 148 14 182 226 196 221 266 43 338 242 54 356 11 5 1 14 26 20 12 11 11 9 9 11 24 17 317 277 231 235 246 249 249 246 245 247 248 246 245 245 246
125 104 70 137 150 211 84 41 13 230 62 43 106 48 10 341 328 316 82 27 12 1 360 358 358 360 360 7 20 20 295 249 231 233 240 241 243 245 247 247 247 247 245 244
28 129 117 178 193 82 191 57 58 46 127 31 27 5 354 340 324 176 88 1 349 342 343 342 341 343 346 349 1 20 31 354 254 250 247 247 242 244 246 247 247 248 245 243
78 77 176 177 206 202 112 148 161 166 234 123 6 352 346 346 303 280 321 325 321 322 322 323 327 326 329 335 342 351 7 17 11 289 241 260 261 257 249 249 250 251 248 245
128 91 187 182 237 221 147 148 156 221 79 0 327 327 322 308 293 295 307 308 313 312 309 304 305 313 315 319 321 332 338 358 22 21 9 4 332 272 261 259 259 256 253 247
178 159 177 179 221 236 158 155 227 68 57 359 348 336 325 318 312 306 303 303 306 307 307 304 297 291 300 302 305 306 315 314 299 301 319 329 339 350 313 284 263 261 258 252
206 214 184 207 213 130 168 172 151 135 46 11 352 331 323 319 322 318 307 302 302 302 301 301 298 290 283 288 292 292 297 306 297 287 288 303 310 303 317 335 322 294 262 259
214 185 227 207 195 207 210 207 205 193 339 289 293 306 314 310 316 317 310 303 302 300 299 298 295 290 285 282 280 280 284 292 296 290 287 281 289 308 312 321 319 321 318 261
184 167 190 250 249 195 233 218 234 226 240 263 284 290 295 303 312 314 310 308 304 299 295 296 294 287 285 283 278 273 269 278 288 293 292 286 279 281 289 295 310 310 315 302
192 180 186 215 199 186 220 210 207 215 237 262 285 304 308 314 311 313 315 319 317 304 300 306 299 290 291 287 283 271 266 270 279 288 296 293 286 281 277 284 279 297 298 294
Height
1506 1506 1506 1506 1508 1508 1508 1508 1511 1512 1510 1511 1511 1512 1514 1519 1524 1527 1532 1536 1540 1545 1549 1553 1556 1559 1563 1566 1569 1572 1575 1579 1583 1587 1589 1591 1593 1595 1597 1600 1601 1602 1603 1605
1506 1504 1506 1506 1508 1510 1510 1511 1513 1512 1512 1514 1512 1514 1516 1518 1520 1523 1528 1533 1537 1542 1547 1550 1554 1558 1561 1565 1568 1571 1574 1577 1581 1585 1588 1591 1593 1595 1597 1599 1601 1602 1604 1605
1501 1498 1502 1504 1507 1510 1510 1512 1514 1512 1513 1513 1512 1517 1517 1518 1521 1524 1527 1530 1535 1537 1542 1547 1551 1555 1559 1563 1567 1569 1573 1576 1579 1584 1587 1590 1593 1595 1596 1598 1600 1602 1603 1605
1498 1496 1499 1503 1504 1505 1511 1510 1511 1513 1515 1517 1515 1517 1517 1516 1517 1520 1524 1527 1530 1534 1539 1544 1548 1552 1556 1560 1565 1569 1572 1575 1579 1582 1585 1588 1592 1594 1596 1598 1600 1601 1603 1605
1496 1496 1498 1502 1501 1503 1506 1507 1509 1512 1516 1517 1518 1516 1511 1517 1515 1516 1521 1523 1525 1529 1533 1538 1543 1547 1552 1557 1561 1566 1570 1573 1577 1580 1583 1586 1590 1593 1596 1597 1598 1601 1603 1604
1494 1496 1497 1496 1498 1500 1504 1509 1515 1519 1518 1525 1516 1514 1521 1519 1521 1515 1514 1518 1521 1526 1531 1535 1540 1545 1548 1553 1557 1562 1566 1570 1574 1578 1581 1584 1587 1591 1594 1596 1597 1598 1601 1603
1496 1499 1500 1500 1499 1503 1503 1507 1523 1531 1531 1523 1524 1519 1528 1525 1524 1518 1511 1513 1517 1521 1527 1532 1535 1539 1543 1547 1551 1556 1561 1566 1570 1574 1578 1581 1584 1588 1591 1594 1597 1597 1599 1601
1499 1510 1502 1503 1501 1496 1499 1500 1507 1526 1527 1519 1526 1523 1533 1528 1525 1520 1514 1514 1516 1520 1525 1528 1531 1534 1538 1543 1547 1551 1554 1560 1565 1569 1574 1577 1581 1585 1588 1591 1594 1597 1599 1600
1502 1509 1506 1506 1504 1504 1506 1506 1507 1514 1528 1511 1516 1527 1525 1526 1524 1521 1520 1519 1520 1520 1523 1526 1529 1531 1532 1535 1539 1544 1549 1555 1559 1564 1569 1573 1577 1581 1583 1587 1591 1594 1597 1599
1504 1509 1511 1508 1507 1506 1501 1510 1509 1507 1524 1519 1524 1531 1530 1533 1531 1527 1524 1524 1523 1521 1521 1521 1523 1526 1527 1528 1532 1537 1544 1549 1554 1559 1564 1568 1572 1576 1580 1583 1587 1591 1594 1597
1506 1502 1514 1509 1521 1523 1510 1509 1513 1508 1515 1509 1519 1534 1537 1538 1537 1534 1532 1529 1525 1522 1520 1518 1515 1518 1522 1525 1528 1531 1536 1542 1548 1553 1558 1563 1567 1572 1576 1579 1582 1586 1590 1593
1513 1511 1522 1525 1526 1526 1520 1522 1519 1500 1519 1523 1508 1535 1539 1538 1537 1536 1535 1533 1529 1525 1520 1516 1511 1512 1518 1521 1524 1526 1531 1536 1541 1547 1552 1557 1562 1567 1571 1574 1578 1581 1584 1589
1515 1521 1524 1528 1523 1523 1524 1524 1524 1523 1517 1519 1509 1531 1538 1539 1537 1537 1536 1534 1531 1527 1522 1517 1514 1514 1516 1520 1522 1524 1527 1532 1537 1541 1545 1550 1555 1560 1565 1569 1573 1577 1580 1583
1517 1524 1522 1513 1521 1525 1526 1526 1524 1520 1513 1523 1522 1529 1534 1538 1540 1539 1537 1535 1533 1529 1525 1521 1518 1517 1517 1518 1519 1522 1525 1528 1532 1537 1540 1543 1548 1552 1558 1563 1568 1572 1575 1578
1520 1526 1530 1533 1532 1531 1530 1528 1528 1526 1528 1523 1528 1530 1537 1542 1544 1544 1542 1539 1535 1531 1528 1527 1523 1520 1518 1516 1517 1519 1523 1525 1527 1531 1534 1538 1542 1546 1551 1555 1560 1565 1569 1572
1529 1534 1533 1540 1538 1536 1534 1533 1533 1532 1533 1533 1534 1535 1543 1545 1546 1546 1544 1542 1539 1537 1533 1530 1528 1524 1519 1518 1517 1518 1519 1522 1525 1527 1528 1532 1536 1540 1543 1547 1552 1557 1561 1564
1532 1533 1536 1536 1542 1538 1537 1536 1534 1533 1536 1538 1534 1544 1546 1545 1547 1547 1547 1546 1543 1540 1537 1534 1531 1530 1526 1522 1518 1518 1518 1518 1521 1523 1525 1527 1530 1533 1536 1539 1542 1546 1551 1556
1534 1538 1542 1541 1542 1541 1538 1541 1540 1537 1542 1544 1545 1550 1551 1550 1548 1547 1548 1547 1545 1542 1539 1537 1534 1531 1528 1526 1522 1519 1518 1518 1518 1519 1521 1523 1524 1526 1529 1532 1533 1537 1541 1545
1536 1536 1543 1539 1536 1540 1539 1542 1541 1539 1540 1548 1548 1551 1552 1550 1545 1546 1546 1546 1546 1544 1541 1538 1536 1534 1530 1528 1525 1522 1519 1517 1517 1518 1519 1519 1519 1520 1522 1524 1526 1529 1532 1535
1537 1537 1534 1539 1532 1528 1533 1541 1544 1545 1537 1548 1549 1550 1551 1550 1542 1540 1543 1542 1541 1541 1539 1537 1535 1534 1532 1529 1526 1523 1521 1520 1519 1516 1516 1516 1515 1516 1518 1519 1520 1522 1523 1526
1537 1537 1535 1534 1531 1529 1535 1541 1544 1538 1543 1549 1549 1550 1551 1551 1552 1547 1542 1539 1539 1537 1534 1533 1533 1532 1531 1529 1527 1524 1522 1520 1520 1518 1516 1515 1514 1514 1513 1512 1513 1515 1516 1517
1533 1536 1536 1538 1535 1535 1537 1540 1539 1542 1545 1546 1546 1547 1548 1547 1545 1544 1540 1536 1533 1531 1530 1528 1527 1527 1528 1528 1526 1523 1522 1520 1518 1516 1516 1516 1515 1512 1510 1507 1507 1508 1509 1510
1536 1533 1532 1532 1528 1531 1534 1535 1537 1539 1540 1541 1543 1545 1545 1544 1542 1540 1537 1534 1531 1527 1526 1523 1522 1520 1521 1523 1522 1519 1518 1516 1514 1513 1512 1511 1510 1508 1507 1502 1502 1502 1503 1503
1534 1535 1534 1533 1526 1530 1532 1533 1534 1536 1538 1541 1542 1541 1540 1539 1537 1534 1532 1529 1526 1523 1519 1519 1517 1514 1512 1514 1515 1515 1513 1512 1510 1508 1507 1505 1505 1503 1501 1500 1499 1497 1495 1496
1529 1533 1531 1531 1529 1531 1529 1530 1532 1536 1538 1539 1538 1537 1537 1535 1533 1530 1525 1523 1519 1516 1515 1513 1509 1507 1506 1506 1506 1507 1507 1507 1505 1503 1502 1500 1497 1498 1496 1495 1494 1492 1491 1491
1524 1522 1524 1519 1519 1522 1523 1527 1531 1534 1535 1535 1535 1534 1532 1531 1528 1524 1520 1516 1512 1509 1507 1503 1500 1499 1498 1498 1498 1499 1500 1499 1499 1497 1495 1494 1491 1490 1488 1487 1487 1488 1485 1488